Location: Unspecified
(48.7670°N, 0.0000°E)
Time: 22:27:06
(UTC+00:00)

AO-7 - Visible Passes

Search period start: 22 October 2019 00:00
Search period end: 01 November 2019 00:00
Orbit: 1439 x 1459 km, 101.8° (Epoch: 22 October)

Date Brightness Start Highest point End Pass type
(mag) Time Alt. Az. Time Alt. Az. Time Alt. Az.
22 Oct ? 02:04:30 10° NE 02:09:47 18° E 02:15:02 10° SE visible
22 Oct ? 03:55:35 10° NNE 04:03:55 76° ESE 04:12:13 10° SSW visible
22 Oct ? 05:48:59 10° N 05:56:02 33° NW 06:03:05 10° WSW visible
23 Oct ? 02:56:01 10° NNE 03:03:35 37° E 03:11:05 10° SSE visible
23 Oct ? 04:48:37 10° NNE 04:56:44 61° WNW 05:04:50 10° SW visible
24 Oct ? 01:57:52 10° NE 02:02:37 16° E 02:07:20 10° ESE visible
24 Oct ? 03:48:35 10° NNE 03:56:53 71° ESE 04:05:10 10° S visible
24 Oct ? 05:41:54 10° N 05:49:07 35° NW 05:56:21 10° WSW visible
25 Oct ? 02:49:06 10° NNE 02:56:29 34° E 03:03:49 10° SSE visible
25 Oct ? 04:41:34 10° NNE 04:49:46 66° WNW 04:57:56 10° SW visible
26 Oct ? 01:51:21 10° NE 01:55:26 14° E 01:59:31 10° ESE visible
26 Oct ? 03:41:34 10° NNE 03:49:51 65° ESE 03:58:05 10° S visible
26 Oct ? 05:34:50 10° N 05:42:13 38° NW 05:49:35 10° WSW visible
27 Oct ? 02:42:13 10° NE 02:49:23 31° E 02:56:29 10° SSE visible
27 Oct ? 04:34:32 10° NNE 04:42:47 71° WNW 04:51:01 10° SSW visible
28 Oct ? 01:44:59 10° ENE 01:48:15 13° E 01:51:29 10° ESE visible
28 Oct ? 03:34:36 10° NNE 03:42:49 60° ESE 03:50:59 10° S visible
28 Oct ? 05:27:46 10° N 05:35:17 41° NW 05:42:48 10° WSW visible
29 Oct ? 02:35:21 10° NE 02:42:16 28° E 02:49:08 10° SSE visible
29 Oct ? 04:27:30 10° NNE 04:35:48 77° WNW 04:44:05 10° SSW visible
30 Oct ? 01:39:01 10° ENE 01:41:03 11° E 01:43:04 10° E visible
30 Oct ? 03:27:37 10° NNE 03:35:46 55° ESE 03:43:51 10° S visible
30 Oct ? 05:20:42 10° N 05:28:22 44° NW 05:36:01 10° WSW visible
31 Oct ? 02:28:30 10° NE 02:35:08 26° E 02:41:44 10° SE visible
31 Oct ? 04:20:28 10° NNE 04:28:48 83° WNW 04:37:07 10° SSW visible
